DW9936 Weather Reports


time (UTC)temp
C
wind
direction
speed
KPH
gust
KPH
rain 1hr
cm
rain 24hr
cm
rain mn
cm
humidity
%
barometer
mb
20260505171521 25 236 0.0 4.8 0.00 0.00 0.00 33 1001.9
20260505170012 26 333 0.0 6.4 0.00 0.00 0.00 32 1001.9
20260505164509 26 245 0.0 9.7 0.00 0.00 0.00 31 1001.9
20260505163006 27 223 0.0 9.7 0.00 0.00 0.00 30 1001.9
20260505161505 28 269 4.8 14.5 0.00 0.00 0.00 28 1002.0
20260505153002 28 336 0.0 1.6 0.00 0.00 0.00 26 1002.1
20260505151559 28 336 0.0 3.2 0.00 0.00 0.00 26 1002.3
20260505150115 28 71 0.0 6.4 0.00 0.00 0.00 27 1002.5
20260505124533 27 101 1.6 9.7 0.00 0.00 0.00 34 1004.9
20260505123046 26 115 1.6 6.4 0.00 0.00 0.00 32 1005.1
20260505121533 26 132 0.0 6.4 0.00 0.00 0.00 36 1005.4
20260505120036 26 72 0.0 8.0 0.00 0.00 0.00 39 1005.6
20260505114527 26 119 0.0 6.4 0.00 0.00 0.00 40 1005.8
20260505113019 25 63 1.6 6.4 0.00 0.00 0.00 41 1006.1
20260505111519 25 96 0.0 9.7 0.00 0.00 0.00 40 1006.2
20260505101507 23 88 0.0 8.0 0.00 0.00 0.00 44 1007.0
20260505100002 23 214 1.6 8.0 0.00 0.00 0.00 46 1007.1
20260505094607 22 96 0.0 8.0 0.00 0.00 0.00 46 1007.5
20260505093056 22 134 0.0 11.3 0.00 0.00 0.00 46 1007.6
20260505091552 21 161 0.0 6.4 0.00 0.00 0.00 48 1007.7
20260505090058 21 121 0.0 6.4 0.00 0.00 0.00 48 1007.9
20260505084544 21 125 1.6 6.4 0.00 0.00 0.00 48 1007.9
20260505083042 21 69 0.0 4.8 0.00 0.00 0.00 48 1007.9
20260505081544 20 69 0.0 4.8 0.00 0.00 0.00 49 1008.2
20260505080047 19 98 1.6 6.4 0.00 0.00 0.00 51 1008.3
20260505074530 19 98 0.0 4.8 0.00 0.00 0.00 51 1008.4
20260505073036 19 82 0.0 4.8 0.00 0.00 0.00 50 1008.5
20260505071526 19 96 0.0 3.2 0.00 0.00 0.00 50 1008.5
20260505070024 18 47 0.0 4.8 0.00 0.00 0.00 51 1008.5
20260505064520 18 35 0.0 3.2 0.00 0.00 0.00 51 1008.7
20260505063016 18 24 0.0 1.6 0.00 0.00 0.00 55 1008.7
20260505061516 16 317 0.0 0.0 0.00 0.00 0.00 60 1008.7
20260505060015 15 317 0.0 1.6 0.00 0.00 0.00 64 1008.8
20260505054507 13 317 0.0 1.6 0.00 0.00 0.00 68 1008.8
20260505053002 12 316 0.0 0.0 0.00 0.00 0.00 71 1008.8
20260505051501 12 316 0.0 0.0 0.00 0.00 0.00 74 1008.9
20260505050127 11 316 0.0 0.0 0.00 0.00 0.00 74 1008.8
20260505041605 10 316 0.0 1.6 0.00 0.00 0.00 75 1008.6
20260505040058 10 306 0.0 0.0 0.00 0.00 0.00 76 1008.5
20260505034548 10 306 0.0 0.0 0.00 0.00 0.00 74 1008.5
20260505033048 11 306 0.0 0.0 0.00 0.00 0.00 73 1008.6
20260505031547 11 306 0.0 0.0 0.00 0.00 0.00 73 1008.6
20260505030043 11 306 0.0 0.0 0.00 0.00 0.00 73 1008.6
20260505024538 12 306 0.0 0.0 0.00 0.00 0.00 71 1008.6
20260505023043 12 306 0.0 0.0 0.00 0.00 0.00 70 1008.6
20260505021536 12 297 0.0 0.0 0.00 0.00 0.00 69 1008.8
20260505020035 12 297 0.0 0.0 0.00 0.00 0.00 68 1009.0
20260505014534 12 297 0.0 0.0 0.00 0.00 0.00 68 1009.0
20260505013030 12 298 0.0 0.0 0.00 0.00 0.00 69 1009.1
20260505011531 12 298 0.0 0.0 0.00 0.00 0.00 68 1009.2
20260505010027 12 315 0.0 0.0 0.00 0.00 0.00 67 1009.2
20260505004533 13 315 0.0 0.0 0.00 0.00 0.00 67 1009.4
20260505003022 13 315 0.0 4.8 0.00 0.00 0.00 65 1009.2
20260505001520 13 311 0.0 0.0 0.00 0.00 0.00 65 1009.5
20260505000027 13 311 0.0 0.0 0.00 0.00 0.00 63 1009.6
20260504234514 14 311 0.0 0.0 0.00 0.00 0.00 62 1009.6
20260504233012 14 311 0.0 1.6 0.00 0.00 0.00 61 1009.7
20260504231511 14 315 0.0 0.0 0.00 0.00 0.00 61 1009.7
20260504230015 14 315 0.0 0.0 0.00 0.00 0.00 61 1009.8
20260504224507 14 315 0.0 0.0 0.00 0.00 0.00 61 1009.7
20260504223006 15 315 0.0 3.2 0.00 0.00 0.00 60 1009.8
20260504221505 15 338 0.0 1.6 0.00 0.00 0.00 58 1009.8
20260504220002 15 294 0.0 0.0 0.00 0.00 0.00 58 1009.8
20260504214604 15 294 0.0 0.0 0.00 0.00 0.00 57 1009.8
20260504213141 16 294 0.0 1.6 0.00 0.00 0.00 56 1009.8
20260504211607 16 146 0.0 0.0 0.00 0.00 0.00 56 1009.9
20260504210100 16 146 0.0 0.0 0.00 0.00 0.00 53 1009.8
20260504204558 17 146 0.0 0.0 0.00 0.00 0.00 49 1009.8
20260504203121 18 146 0.0 0.0 0.00 0.00 0.00 48 1009.7
20260504201558 18 146 0.0 0.0 0.00 0.00 0.00 46 1009.8
20260504200058 18 146 0.0 0.0 0.00 0.00 0.00 44 1009.8
20260504194606 19 146 0.0 0.0 0.00 0.00 0.00 43 1009.8
20260504193109 20 146 0.0 0.0 0.00 0.00 0.00 42 1009.7
20260504191556 20 121 0.0 1.6 0.00 0.00 0.00 40 1009.7
20260504190114 21 111 0.0 1.6 0.00 0.00 0.00 38 1009.6
20260504184605 21 153 0.0 1.6 0.00 0.00 0.00 38 1009.5
20260504183054 22 115 0.0 3.2 0.00 0.00 0.00 37 1009.6
20260504181554 22 80 0.0 3.2 0.00 0.00 0.00 36 1009.5
20260504180054 22 68 0.0 3.2 0.00 0.00 0.00 35 1009.5
20260504174601 23 74 0.0 3.2 0.00 0.00 0.00 35 1009.6
20260504173056 24 67 0.0 3.2 0.00 0.00 0.00 33 1009.6